User: anonymous   Login
Location: ?????
(32.7281°N, 34.9563°E)
Time: 06:48:14
(UTC+00:00)
Language:

FENGYUN 1C DEB - Orbit

View from above orbital plane
View from above orbital plane
View from above satellite
View from above satellite

Ground track
Ground track

The orbit data is extracted from the following two-line orbital elements,

1 31739U 99025CEN 21128.81863079  .00000020  00000-0  29463-4 0  9994
2 31739  98.9782 163.4551 0128961 201.9355 157.6269 14.18163022716834
Epoch (UTC): 08 May 2021 19:38:49
Eccentricity: 0.0128961
inclination: 98.9782°
perigee height: 738 km
apogee height: 924 km
right ascension of ascending node: 163.4551°
argument of perigee: 201.9355°
revolutions per day: 14.18163022
mean anomaly at epoch: 157.6269°
orbit number at epoch: 71683

The dashed part of the orbit path shows where the satellite is in the earth's shadow,  

DLR